Retour au catalogue

FENGYUN 1C DEB

ActifSSO
NORAD 38119·DEBRIS·🇨🇳 China

Lancé May 10, 1999 depuis Taiyuan Satellite Launch Center

Loading…

Prochains Passages (prochaines 24 heures)

TLE

FraisSource: Space-Track

Époque: Sep 14, 2026, 09:59 UTC

1 38119U 99025EPQ 26257.41632956  .00007987  00000-0  29552-2 0  9991
2 38119  98.5886 326.7868 0223415 155.7905 205.3968 14.19691989579154

Suivez FENGYUN 1C DEB en temps réel avec AllMySat

Download on the App Store